User: anonymous   Login
Location: Unspecified
(0.0000°N, 0.0000°E)
Time: 08:58:21
(UTC+00:00)
Language:

URSA MAIOR - Orbit

View from above orbital plane
View from above orbital plane
View from above satellite
View from above satellite

Ground track
Ground track

The orbit data is extracted from the following two-line orbital elements,

1 42776U 17036M   23088.90191968  .00030456  00000-0  92873-3 0  9997
2 42776  97.1645 122.4927 0010760  38.8872 321.3143 15.33837019320425
Epoch (UTC): 29 March 2023 21:38:45
Eccentricity: 0.0010760
inclination: 97.1645°
perigee height: 457 km
apogee height: 472 km
right ascension of ascending node: 122.4927°
argument of perigee: 38.8872°
revolutions per day: 15.33837019
mean anomaly at epoch: 321.3143°
orbit number at epoch: 32042

The dashed part of the orbit path shows where the satellite is in the earth's shadow,  

DLR